Regional Weather Roundup
Issued by NWS

Home | Current Version | Previous Version | Graphics & Text | Print | Product List | Glossary On
Versions: 1 2 3 4 5 6 7 8 9 10 11 12 13 14 15 16 17 18 19 20 21 22 23 24 25 26 27 28 29 30 31 32 33 34 35 36 37 38 39 40 41 42 43 44 45 46 47 48
000
ASUS45 KBOU 220107
RWRCO

WEATHER ROUNDUP FOR COLORADO
NATIONAL WEATHER SERVICE DENVER/BOULDER CO
700 PM MDT MON JUL 21 2014

NOTE: "FAIR" INDICATES FEW OR NO CLOUDS BELOW 12000 FEET WITH NO
SIGNIFICANT WEATHER AND/OR OBSTRUCTIONS TO VISIBILITY.

COZ001>005-013-030-031-220200-
...NORTHWEST COLORADO...

CITY           SKY/WX    TMP DP  RH WIND       PRES   REMARKS
CRAIG          MOSUNNY   87  35  15 CALM      30.20S
HAYDEN         PTSUNNY   79  37  22 NE9       30.24S
MEEKER         MOSUNNY   86  31  13 S12       30.21R
MOUNT WERNER   NOT AVBL
STEAMBOAT SPGS PTSUNNY   79  34  19 NW7G22    30.28R
WALDEN         MOSUNNY   73  30  20 W8G17     30.38S
$$

COZ006>008-011-220200-
...WEST CENTRAL VALLEYS...

CITY           SKY/WX    TMP DP  RH WIND       PRES   REMARKS
GRAND JUNCTION SUNNY     93  19   7 NW13      30.07F
MONTROSE       MOSUNNY   92  29  10 W9        30.18S
EAGLE          MOSUNNY   88  36  15 SW9       30.25R
RIFLE          SUNNY     92  29  10 W9        30.12S
DELTA          MOSUNNY   97  29   9 S6        30.11S
NUCLA          MOSUNNY   90  25   9 SW10G20   30.23S
$$

COZ017>023-064>068-220200-
...SOUTHWEST COLORADO...

CITY           SKY/WX    TMP DP  RH WIND       PRES   REMARKS
DURANGO        MOSUNNY   87  30  13 SW9       30.25S
CORTEZ         SUNNY     88  29  12 NW10      30.22S
PAGOSA SPRINGS MOSUNNY   84  24  11 SW7       30.34S
TELLURIDE      PTSUNNY   73  28  19 W10G20    30.48R
WOLF CREEK PAS NOT AVBL
$$

COZ009-010-012-014-032>034-037-058>063-220200-
...CENTRAL COLORADO...

CITY           SKY/WX    TMP DP  RH WIND       PRES   REMARKS
ASPEN          PTSUNNY   81  30  15 CALM      30.35S
BUENA VISTA    PTSUNNY   77  32  19 SE9       30.36R
COPPER MTN     PTSUNNY   61  34  36 W17       30.75R
BERTHOUD PASS  FAIR      54  39  58 NW12      30.79S
COTTONWOOD PAS PTSUNNY   73  19  13 W5G20     30.53S
GUNNISON       PTSUNNY   79  37  22 N7        30.37S
KREMMLING      PTSUNNY   81  28  15 W7        30.31S
LEADVILLE      CLOUDY    68  31  25 N6        30.54R
MONARCH PASS   PTSUNNY   59  32  36 SW9       30.83S
SALIDA         NOT AVBL
SUNLIGHT       PTSUNNY   68  37  32 CALM      30.64S
WILKERSON PASS CLOUDY    61  28  29 NE12G21   30.69F
$$

COZ069>075-220200-
...SAN LUIS VALLEY/SANGRE DE CRISTO MOUNTAINS...

CITY           SKY/WX    TMP DP  RH WIND       PRES   REMARKS
ALAMOSA        CLOUDY    76  49  38 CALM      30.36R
LA VETA PASS   PTSUNNY   63  43  48 CALM      30.59S THUNDER
SAGUACHE       CLOUDY    72  45  37 N7        30.40R
$$

COZ035-036-038>040-220200-
...NORTHERN COLORADO FRONT RANGE...

CITY           SKY/WX    TMP DP  RH WIND       PRES   REMARKS
DENVER INTL AP MOSUNNY   91  36  14 S8        30.11S
DMNS CITY PARK   N/A     86  42  21 E2        30.11R
AURORA         MOSUNNY   89  43  20 E6        30.14S
FRONT RANGE AP NOT AVBL
ERIE MUNI ARPT PTSUNNY   88  43  21 N3        30.10R
BOULDER MUN AP PTSUNNY   86  45  23 NW6       30.11R
CENTENNIAL     MOSUNNY   88  40  18 S12       30.16S
BROOMFIELD     NOT AVBL
FORT COLLINS   PTSUNNY   93  41  16 E7        30.06F
LONGMONT       PTSUNNY   89  48  24 NW3       30.11S
$$

COZ041-046-047-076>085-087-088-220200-
...PIKES PEAK/PALMER DIVIDE AND SOUTHERN FOOTHILLS...

CITY           SKY/WX    TMP DP  RH WIND       PRES   REMARKS
COLO. SPRINGS  MOSUNNY   83  47  28 S8        30.22S
A. F. ACADEMY  MOSUNNY   79  44  29 SE8       30.25R
ELLICOTT       MOSUNNY   84  45  25 SW6       30.21S
FALCON         MOSUNNY   81  44  27 SW8       30.29S
FORT CARSON    MOSUNNY   85  49  29 S6        30.19S
LIMON          MOSUNNY   89  38  16 SW9       30.13S
MONUMENT HILL  MOSUNNY   75  41  29 S8        30.29R
TRINIDAD       CLOUDY    77  51  40 SW12      30.21F
$$

COZ042>045-048>051-090-091-220200-
...NORTHEAST COLORADO...

CITY           SKY/WX    TMP DP  RH WIND       PRES   REMARKS
GREELEY ARPT   PTSUNNY   86  52  30 NE3       30.07S
AKRON          SUNNY     94  43  17 S12       30.07R
BURLINGTON     MOSUNNY   88  55  32 SE21G33   30.06R
WRAY             N/A     94  51  23 E18       29.99R
STERLING       SUNNY     90  66  45 S3        29.99R
HOLYOKE        MOSUNNY   90  59  35 S8        29.98S
FORT MORGAN    SUNNY     89  50  26 SE5       30.06R
$$

COZ086-089-092>099-220200-
...SOUTHEAST COLORADO...

CITY           SKY/WX    TMP DP  RH WIND       PRES   REMARKS
PUEBLO         MOSUNNY   90  47  22 SW9       30.08F
LA JUNTA       CLOUDY    87  54  32 SW21      30.05F
LAMAR          PTSUNNY   91  50  24 SW20      29.98R
SPRINGFIELD      N/A     84  54  35 SW8G18    30.06S
$$



USA.gov is the U.S. government's official web portal to all federal, state and local government web resources and services.